Location: Amsterdam
(30.7274°N, 84.4357°W)
Time: 20:21:28
(UTC+00:00)

Explorer 11/Cluster Stage 4 - Pass Details

Date: 20 February 2026
Orbit: 463 x 1176 km, 28.8° (Epoch: 5 March)

Event Time Altitude Azimuth Distance (km) Brightness Sun altitude
Rises 22:39:37 0° 264° (W) 2,484 11.1 9.5°
Reaches altitude 10° 22:42:28 10° 240° (WSW) 1,596 10.4 9.0°
Maximum altitude 22:44:37 15° 203° (SSW) 1,320 8.5 8.5°
Drops below altitude 10° 22:46:50 10° 166° (SSE) 1,635 8.3 8.1°
Sets 22:49:49 0° 142° (SE) 2,584 9.0 7.5°
